Location: Waco, TX
(31.5480°N, 97.1670°W)
Time: 20:55:48
(UTC-06:00)

ISS - Pass Details

Date: 15 November 2017
Orbit: 401 x 407 km, 51.6° (Epoch: 18 November)

Event Time Altitude Azimuth Distance (km) Brightness Sun altitude
Rises 22:12:21 0° 209° (SSW) 2,305 - -59.9°
Reaches altitude 10° 22:14:29 10° 201° (SSW) 1,449 - -60.3°
Maximum altitude 22:17:32 38° 131° (SE) 626 - -61.0°
Drops below altitude 10° 22:20:36 10° 61° (ENE) 1,453 - -61.6°
Sets 22:22:45 0° 53° (NE) 2,314 - -62.0°
